N8YZF Weather Reports


Display with metric or nautical units.
time (UTC)temp
F
wind
direction
speed
MPH
gust
MPH
rain 1hr
in
rain 24hr
in
rain mn
in
humidity
%
barometer
mb
20260901135547 71 157 0.0 0.0 0.00 0.00 0.00 97 1011.6
20260901135311 71 157 0.0 0.0 0.00 0.04 0.00 97 1011.6
20260901134509 71 157 0.0 0.0 0.00 0.12 0.00 97 1011.6
20260901134009 71 157 0.0 0.0 0.00 0.19 0.00 97 1011.6
20260901133626 71 157 0.0 0.0 0.00 0.19 0.00 97 1011.5
20260901133600 71 157 0.0 0.0 0.00 0.19 0.00 97 1011.6
20260901132506 71 157 0.0 0.0 0.00 0.19 0.00 97 1011.5
20260901132008 71 157 0.0 0.0 0.00 0.19 0.00 97 1011.5
20260901131446 71 146 0.0 0.0 0.00 0.19 0.00 97 1011.5
20260901130937 71 146 0.0 0.0 0.00 0.21 0.00 97 1011.5
20260901130735 70 146 0.0 0.0 0.00 0.24 0.00 97 1011.5
20260901125918 70 145 0.0 0.0 0.00 0.24 0.00 97 1011.4
20260901125415 70 145 0.0 0.0 0.00 0.25 0.00 97 1011.4
20260901124908 70 145 0.0 0.0 0.00 0.26 0.00 97 1011.4
20260901124711 70 145 0.0 0.0 0.00 0.30 0.00 97 1011.3
20260901123859 70 145 0.0 0.0 0.00 0.36 0.00 97 1011.3
20260901123655 70 145 0.0 0.0 0.00 0.38 0.00 97 1011.3
20260901123149 69 145 0.0 0.0 0.00 0.42 0.00 97 1011.2
20260901122333 69 145 0.0 0.0 0.00 0.51 0.00 97 1011.2
20260901121816 69 128 0.0 0.0 0.00 0.52 0.00 97 1011.2
20260901121308 69 128 0.0 0.0 0.00 0.52 0.00 97 1010.9
20260901121219 69 128 0.0 0.0 0.00 0.52 0.00 97 1010.9
20260901121213 69 128 0.0 0.0 0.00 0.52 0.00 97 1010.9
20260901115748 69 128 0.0 0.0 0.00 0.52 0.00 97 1010.7
20260901115242 69 128 0.0 0.0 0.00 0.52 0.00 97 1010.7
20260901114741 69 128 0.0 0.0 0.00 0.52 0.00 97 1010.7
20260901114549 68 128 0.0 0.0 0.00 0.52 0.00 97 1010.6
20260901113732 68 128 0.0 0.0 0.00 0.52 0.00 97 1010.6
20260901113226 68 128 0.0 0.0 0.00 0.52 0.00 97 1010.6
20260901112714 68 128 0.0 0.0 0.00 0.52 0.00 97 1010.1
20260901112208 67 128 0.0 0.0 0.00 0.52 0.00 97 1010.1
20260901111700 67 128 0.0 0.0 0.00 0.52 0.00 96 1010.0
20260901111200 67 128 0.0 0.0 0.00 0.52 0.00 96 1010.0
20260901110657 67 128 0.0 0.0 0.00 0.52 0.00 96 1010.0
20260901110452 66 128 0.0 0.0 0.00 0.52 0.00 96 1010.0
20260901105647 66 128 0.0 0.0 0.00 0.52 0.00 96 1010.0
20260901105145 66 128 0.0 0.0 0.00 0.52 0.00 96 1010.0
20260901104636 66 128 0.0 0.0 0.00 0.52 0.00 96 1010.0
20260901104131 66 128 0.0 0.0 0.00 0.52 0.00 96 1009.9
20260901103614 66 128 0.0 0.0 0.00 0.52 0.00 96 1009.9
20260901103120 66 128 0.0 0.0 0.00 0.52 0.00 96 1009.9
20260901102854 66 128 0.0 0.0 0.00 0.52 0.00 95 1010.0
20260901102052 66 128 0.0 0.0 0.00 0.52 0.00 96 1010.0
20260901101601 66 128 0.0 0.0 0.00 0.52 0.00 96 1010.0
20260901101029 67 128 0.0 0.0 0.00 0.52 0.00 96 1009.9
20260901100814 67 128 0.0 0.0 0.00 0.52 0.00 96 1009.9
20260901100009 67 128 0.0 0.0 0.00 0.52 0.00 96 1009.8
20260901095518 67 128 0.0 0.0 0.00 0.52 0.00 96 1009.8
20260901094959 66 128 0.0 0.0 0.00 0.52 0.00 96 1009.8
20260901094808 66 128 0.0 0.0 0.00 0.52 0.00 95 1009.8
20260901093956 66 128 0.0 0.0 0.00 0.52 0.00 95 1009.8
20260901093503 67 128 0.0 0.0 0.00 0.52 0.00 95 1009.8
20260901092951 67 128 0.0 0.0 0.00 0.52 0.00 95 1009.7
20260901092442 67 128 0.0 0.0 0.00 0.52 0.00 95 1009.7
20260901091934 67 128 0.0 0.0 0.00 0.52 0.00 95 1009.7
20260901091426 67 128 0.0 0.0 0.00 0.52 0.00 95 1009.6
20260901090929 67 128 0.0 0.0 0.00 0.52 0.00 95 1009.6
20260901090419 67 128 0.0 0.0 0.00 0.52 0.00 95 1009.6
20260901085912 67 128 0.0 0.0 0.00 0.52 0.00 95 1009.6
20260901085404 67 128 0.0 0.0 0.00 0.52 0.00 95 1009.6
20260901085215 67 128 0.0 0.0 0.00 0.52 0.00 95 1009.6
20260901084402 67 128 0.0 0.0 0.00 0.52 0.00 95 1009.6
20260901083846 67 128 0.0 0.0 0.00 0.52 0.00 95 1009.6
20260901083640 67 128 0.0 0.0 0.00 0.52 0.00 95 1009.6
20260901082845 68 128 0.0 0.0 0.00 0.52 0.00 95 1009.6
20260901082335 68 128 0.0 0.0 0.00 0.52 0.00 95 1009.6
20260901081817 68 128 0.0 0.0 0.00 0.52 0.00 95 1009.6
20260901081310 68 128 0.0 0.0 0.00 0.52 0.00 95 1009.6
20260901081107 68 128 0.0 0.0 0.00 0.52 0.00 95 1009.6
20260901080300 68 128 0.0 0.0 0.00 0.52 0.00 95 1009.6
20260901075749 68 128 0.0 0.0 0.00 0.52 0.00 95 1009.8
20260901075246 68 128 0.0 0.0 0.00 0.52 0.00 95 1009.8
20260901074745 68 128 0.0 0.0 0.00 0.52 0.00 95 1009.8
20260901074258 68 128 0.0 0.0 0.00 0.52 0.00 95 1009.7
20260901073723 68 128 0.0 0.0 0.00 0.52 0.00 94 1009.7
20260901073215 68 128 0.0 0.0 0.00 0.52 0.00 94 1009.7
20260901072710 69 128 0.0 0.0 0.00 0.52 0.00 94 1009.7
20260901072323 69 128 0.0 0.0 0.00 0.52 0.00 94 1009.7
20260901072258 69 128 0.0 0.0 0.00 0.52 0.00 94 1009.7
20260901071150 69 128 0.0 0.0 0.00 0.52 0.00 94 1009.7
20260901070949 69 128 0.0 0.0 0.00 0.52 0.00 94 1009.7
20260901070424 69 128 0.0 0.0 0.00 0.52 0.00 94 1009.7
20260901065612 69 128 0.0 0.0 0.00 0.52 0.00 94 1009.7
20260901065106 69 128 0.0 0.0 0.00 0.52 0.00 94 1009.7
20260901064605 69 128 0.0 0.0 0.00 0.52 0.00 94 1009.7
20260901064102 69 128 0.0 0.0 0.00 0.52 0.00 94 1009.7
20260901063543 69 128 0.0 0.0 0.00 0.52 0.00 94 1009.7
20260901063038 70 128 0.0 0.0 0.00 0.52 0.00 94 1009.9
20260901062523 70 128 0.0 0.0 0.00 0.52 0.00 93 1009.9
20260901062010 70 128 0.0 0.0 0.00 0.52 0.00 94 1010.0
20260901061511 70 128 0.0 0.0 0.00 0.52 0.00 93 1010.0
20260901061009 70 128 0.0 0.0 0.00 0.52 0.00 93 1010.3
20260901060511 70 128 0.0 0.0 0.00 0.52 0.00 93 1010.3
20260901060009 70 128 0.0 0.0 0.00 0.52 0.00 93 1010.3
20260901055811 70 128 0.0 0.0 0.00 0.52 0.00 93 1010.3
20260901054949 70 128 0.0 0.0 0.00 0.52 0.00 93 1010.3
20260901054442 70 128 0.0 0.0 0.00 0.52 0.00 93 1010.3
20260901054253 70 128 0.0 0.0 0.00 0.52 0.00 93 1010.3
20260901053429 70 128 0.0 0.0 0.00 0.52 0.00 92 1010.3
20260901052908 70 128 0.0 0.0 0.00 0.52 0.00 92 1010.3
20260901052408 71 128 0.0 0.0 0.00 0.52 0.00 92 1010.3
20260901051905 71 128 0.0 0.0 0.00 0.52 0.00 92 1010.3
20260901051403 71 128 0.0 0.0 0.00 0.52 0.00 92 1010.4
20260901050903 71 128 0.0 0.0 0.00 0.52 0.00 91 1010.4
20260901050356 71 128 0.0 0.0 0.00 0.52 0.00 91 1010.4
20260901045851 71 128 0.0 0.0 0.00 0.52 0.00 91 1010.4
20260901045354 71 128 0.0 0.0 0.00 0.52 0.00 91 1010.4
20260901045125 71 128 0.0 0.0 0.00 0.52 0.00 91 1010.4
20260901044316 71 128 0.0 0.0 0.00 0.52 0.00 91 1010.7
20260901043810 72 128 0.0 0.0 0.00 0.52 0.00 91 1010.7
20260901043606 71 128 0.0 0.0 0.00 0.52 0.00 91 1010.7
20260901042748 72 128 0.0 0.0 0.00 0.52 0.00 90 1010.7
20260901042249 72 128 0.0 0.0 0.00 0.52 0.00 89 1010.7
20260901041744 72 128 0.0 0.0 0.00 0.52 0.00 89 1010.7
20260901041230 72 128 0.0 0.0 0.00 0.52 0.00 89 1010.5
20260901040720 72 128 0.0 0.0 0.00 0.52 0.00 89 1010.5
20260901040221 72 128 0.0 0.0 0.00 0.52 0.00 89 1010.5
20260901040023 73 128 0.0 0.0 0.00 0.52 0.52 88 1010.7
20260901035509 73 128 0.0 0.0 0.00 0.52 0.52 88 1010.7
20260901034705 73 128 0.0 0.0 0.00 0.52 0.52 88 1010.8
20260901034147 73 248 0.0 0.0 0.00 0.52 0.52 87 1011.0
20260901033621 73 248 0.0 0.0 0.00 0.52 0.52 87 1011.1
20260901033118 73 248 0.0 0.0 0.00 0.52 0.52 87 1011.1
20260901032610 74 248 0.0 0.0 0.00 0.52 0.52 87 1011.1
20260901032110 74 248 0.0 0.0 0.00 0.52 0.52 86 1011.1
20260901031609 74 248 0.0 0.0 0.00 0.52 0.52 86 1011.1
20260901031215 75 248 0.0 0.0 0.00 0.52 0.52 84 1011.1
20260901031153 74 248 0.0 0.0 0.00 0.52 0.52 85 1011.0
20260901030416 75 248 0.0 0.0 0.00 0.52 0.52 84 1011.1
20260901025549 75 248 0.0 0.0 0.00 0.52 0.52 83 1011.2
20260901025046 75 248 0.0 0.0 0.00 0.52 0.52 83 1011.2
20260901024536 75 248 0.0 0.0 0.00 0.52 0.52 83 1011.2
20260901024036 76 248 0.0 0.0 0.00 0.52 0.52 82 1010.7
20260901023528 76 248 0.0 0.0 0.00 0.52 0.52 82 1010.7
20260901023011 76 218 0.0 0.0 0.00 0.52 0.52 82 1010.7
20260901022508 76 218 0.0 3.0 0.00 0.52 0.52 81 1010.7
20260901022006 76 218 0.0 3.0 0.00 0.52 0.52 81 1010.7
20260901021810 76 223 0.0 3.0 0.00 0.52 0.52 81 1010.7
20260901021001 76 240 0.0 2.0 0.00 0.52 0.52 81 1010.7
20260901020806 76 265 1.0 4.0 0.00 0.52 0.52 81 1010.7
20260901015949 76 265 1.0 4.0 0.00 0.52 0.52 80 1010.8
20260901015429 76 257 1.0 3.0 0.00 0.52 0.52 80 1010.8
20260901014919 76 256 0.0 2.0 0.00 0.52 0.52 80 1010.8
20260901014412 76 244 0.0 2.0 0.00 0.52 0.52 80 1010.4
20260901013913 76 243 1.0 2.0 0.00 0.52 0.52 79 1010.4
20260901013410 77 196 1.0 2.0 0.00 0.52 0.52 78 1010.4
20260901012905 77 208 1.0 2.0 0.00 0.52 0.52 78 1009.6
20260901012409 77 208 1.0 4.0 0.00 0.52 0.52 77 1009.6
20260901011903 77 208 2.0 6.0 0.00 0.52 0.52 77 1009.6
20260901011401 77 142 2.0 6.0 0.00 0.52 0.52 77 1009.8
20260901011211 77 131 2.0 6.0 0.00 0.52 0.52 77 1009.8
20260901010401 77 201 2.0 6.0 0.00 0.52 0.52 77 1009.8
20260901005900 77 184 1.0 6.0 0.00 0.52 0.52 77 1010.1
20260901005401 77 162 1.0 6.0 0.00 0.52 0.52 76 1010.1
20260901004855 77 205 1.0 4.0 0.00 0.52 0.52 76 1010.1
20260901004354 77 205 1.0 5.0 0.00 0.52 0.52 76 1010.3
20260901003842 77 289 1.0 5.0 0.00 0.52 0.52 75 1010.3
20260901003339 78 201 1.0 3.0 0.00 0.52 0.52 75 1010.3
20260901003142 78 201 0.0 3.0 0.00 0.52 0.52 75 1010.1
20260901002324 78 201 1.0 4.0 0.00 0.52 0.52 74 1010.1
20260901001819 78 201 1.0 4.0 0.00 0.52 0.52 74 1010.1
20260901001321 78 198 1.0 4.0 0.00 0.52 0.52 73 1009.7
20260901000814 78 190 1.0 4.0 0.00 0.52 0.52 73 1009.7
20260901000330 78 203 2.0 4.0 0.00 0.52 0.52 73 1009.7
20260831235754 79 215 2.0 5.0 0.00 0.52 0.52 72 1009.8
20260831235255 79 192 2.0 5.0 0.00 0.52 0.52 72 1009.8
20260831234757 79 213 2.0 4.0 0.00 0.52 0.52 71 1009.8
20260831234253 79 227 2.0 4.0 0.00 0.52 0.52 71 1009.8
20260831233743 79 246 2.0 4.0 0.00 0.52 0.52 70 1009.8
20260831233256 80 275 2.0 5.0 0.00 0.52 0.52 70 1009.8
20260831232741 80 276 2.0 7.0 0.00 0.52 0.52 69 1009.9
20260831232241 80 242 2.0 7.0 0.00 0.52 0.52 68 1009.9
20260831231742 81 254 2.0 6.0 0.00 0.52 0.52 67 1010.0
20260831231240 81 208 3.0 11.0 0.00 0.52 0.52 66 1009.9
20260831230744 81 266 3.0 11.0 0.00 0.52 0.52 66 1009.9
20260831230237 81 258 4.0 14.0 0.00 0.52 0.52 66 1009.9
20260831225733 82 207 4.0 14.0 0.00 0.52 0.52 65 1009.9
20260831225221 82 259 4.0 8.0 0.00 0.52 0.52 64 1010.0
20260831224716 82 257 3.0 10.0 0.00 0.52 0.52 64 1010.0
20260831224218 82 217 4.0 10.0 0.00 0.52 0.52 63 1010.0
20260831223708 82 252 4.0 11.0 0.00 0.52 0.52 63 1010.0
20260831223206 83 282 5.0 11.0 0.00 0.52 0.52 62 1010.0
20260831222707 83 255 4.0 13.0 0.00 0.52 0.52 62 1010.0
20260831222527 83 246 4.0 13.0 0.00 0.52 0.52 62 1010.0
20260831221707 83 198 5.0 12.0 0.00 0.52 0.52 62 1010.0
20260831221202 83 163 4.0 11.0 0.00 0.52 0.52 62 1010.0
20260831220901 83 284 4.0 11.0 0.00 0.52 0.52 62 1010.1
20260831220814 83 247 3.0 11.0 0.00 0.52 0.52 61 1010.1
20260831215702 83 212 4.0 11.0 0.00 0.52 0.52 62 1009.9
20260831215204 84 202 4.0 13.0 0.00 0.52 0.52 62 1009.9
20260831214700 84 232 5.0 13.0 0.00 0.52 0.52 61 1009.9
20260831214200 84 254 4.0 13.0 0.00 0.52 0.52 61 1009.8
20260831213659 84 205 3.0 12.0 0.00 0.52 0.52 61 1009.8
20260831213522 84 252 4.0 11.0 0.00 0.52 0.52 62 1009.8
20260831212653 84 194 4.0 14.0 0.00 0.52 0.52 61 1009.7
20260831212152 84 207 4.0 9.0 0.00 0.52 0.52 62 1009.7
20260831211650 84 239 4.0 10.0 0.00 0.52 0.52 61 1009.7
20260831211150 84 258 5.0 12.0 0.00 0.52 0.52 62 1009.7
20260831210646 84 251 6.0 12.0 0.00 0.52 0.52 61 1009.7
20260831210147 84 219 5.0 11.0 0.00 0.52 0.52 62 1009.7
20260831205641 84 267 5.0 12.0 0.00 0.52 0.52 62 1009.6
20260831205134 84 250 5.0 15.0 0.00 0.52 0.52 61 1009.6
20260831205004 85 219 5.0 15.0 0.00 0.52 0.52 61 1009.6
20260831204131 85 241 4.0 11.0 0.00 0.52 0.52 61 1009.6
20260831203611 85 196 5.0 12.0 0.00 0.52 0.52 62 1009.5
20260831203116 84 215 6.0 12.0 0.00 0.52 0.52 63 1009.5
20260831202611 84 203 6.0 14.0 0.00 0.52 0.52 63 1009.7
20260831202108 84 191 5.0 14.0 0.00 0.52 0.52 63 1009.7
20260831201610 84 190 5.0 11.0 0.00 0.52 0.52 64 1009.7
20260831201109 84 177 5.0 11.0 0.00 0.52 0.52 64 1009.8
20260831200620 84 199 5.0 11.0 0.00 0.52 0.52 63 1009.8
20260831200439 84 187 5.0 11.0 0.00 0.52 0.52 62 1009.8
20260831195617 84 183 4.0 8.0 0.00 0.52 0.52 64 1010.0
20260831195104 83 82 5.0 10.0 0.00 0.52 0.52 63 1010.0
20260831194608 84 232 4.0 10.0 0.00 0.52 0.52 62 1010.0
20260831194103 84 171 4.0 11.0 0.00 0.52 0.52 63 1010.1
20260831193602 83 201 4.0 17.0 0.00 0.52 0.52 64 1010.0
20260831193433 84 187 4.0 17.0 0.00 0.52 0.52 63 1010.1
20260831192930 84 209 4.0 12.0 0.00 0.52 0.52 65 1010.4
20260831192059 83 169 5.0 12.0 0.00 0.52 0.52 65 1010.4
20260831191601 83 265 4.0 11.0 0.00 0.52 0.52 65 1010.4
20260831191101 84 220 4.0 11.0 0.00 0.52 0.52 65 1010.6
20260831190601 84 132 5.0 11.0 0.00 0.52 0.52 65 1010.6
20260831190107 84 210 5.0 11.0 0.00 0.52 0.52 64 1010.6
20260831185604 84 217 5.0 11.0 0.00 0.52 0.52 64 1010.8
20260831185059 84 229 4.0 14.0 0.00 0.52 0.52 64 1010.8
20260831184559 84 194 4.0 14.0 0.00 0.52 0.52 64 1010.8
20260831184055 84 238 5.0 11.0 0.00 0.52 0.52 67 1010.8
20260831183555 84 265 5.0 14.0 0.00 0.52 0.52 67 1010.8
20260831183423 83 188 5.0 14.0 0.00 0.52 0.52 69 1010.7
20260831182554 83 238 4.0 11.0 0.00 0.52 0.52 71 1011.0
20260831182053 82 163 4.0 11.0 0.00 0.52 0.52 71 1011.0
20260831181553 82 213 4.0 9.0 0.00 0.52 0.52 72 1010.9
20260831181052 81 200 5.0 8.0 0.00 0.52 0.52 72 1011.1
20260831180554 81 177 4.0 11.0 0.00 0.52 0.52 74 1011.1
20260831180104 81 236 4.0 11.0 0.00 0.52 0.52 73 1011.1
20260831175547 80 167 5.0 12.0 0.00 0.52 0.52 75 1011.1
20260831175044 80 184 5.0 12.0 0.00 0.52 0.52 74 1011.1
20260831174543 80 225 4.0 11.0 0.00 0.52 0.52 75 1011.1
20260831174043 80 211 4.0 11.0 0.00 0.52 0.52 75 1011.5
20260831173538 79 253 4.0 9.0 0.00 0.52 0.52 77 1011.5
20260831173413 79 182 3.0 9.0 0.00 0.52 0.52 76 1011.5
20260831172539 79 119 2.0 5.0 0.00 0.52 0.52 78 1011.4
20260831172213 79 229 4.0 12.0 0.00 0.52 0.52 80 1011.3
20260831172128 79 205 3.0 8.0 0.00 0.52 0.52 80 1011.4
20260831171354 78 165 5.0 12.0 0.00 0.52 0.52 80 1011.3
20260831170514 78 205 5.0 10.0 0.00 0.52 0.52 80 1011.3
20260831170339 78 227 4.0 9.0 0.00 0.52 0.52 81 1011.3
20260831165516 77 135 4.0 7.0 0.00 0.52 0.52 82 1011.4
20260831165012 77 215 4.0 10.0 0.00 0.52 0.52 84 1011.4
20260831164850 76 223 4.0 10.0 0.00 0.52 0.52 85 1011.5
20260831164009 76 221 4.0 9.0 0.00 0.52 0.52 85 1011.5
20260831163510 75 153 4.0 9.0 0.00 0.52 0.52 86 1011.5
20260831163013 75 162 4.0 8.0 0.00 0.52 0.52 87 1011.5
20260831162511 75 178 4.0 8.0 0.00 0.52 0.52 86 1011.6
20260831162010 75 213 4.0 9.0 0.00 0.52 0.52 86 1011.7
20260831161824 75 224 4.0 9.0 0.00 0.52 0.52 88 1011.6
20260831161011 74 188 4.0 8.0 0.00 0.52 0.52 89 1011.8
20260831160510 74 184 3.0 8.0 0.00 0.52 0.52 90 1011.8
20260831160014 74 167 3.0 7.0 0.00 0.52 0.52 92 1011.8
20260831155509 73 166 3.0 7.0 0.00 0.52 0.52 92 1012.0
20260831155009 72 116 2.0 6.0 0.00 0.52 0.52 94 1012.0
20260831154820 72 130 3.0 7.0 0.00 0.52 0.52 94 1012.1
20260831154004 71 236 4.0 7.0 0.00 0.52 0.52 94 1012.1
20260831153505 71 115 3.0 7.0 0.00 0.52 0.52 94 1012.1
20260831153326 71 236 4.0 8.0 0.00 0.52 0.52 94 1012.1
20260831152458 71 148 4.0 8.0 0.00 0.52 0.52 95 1012.1
20260831151959 71 119 3.0 7.0 0.00 0.52 0.52 96 1012.1
20260831151502 71 158 3.0 7.0 0.00 0.52 0.52 96 1012.0
20260831150957 70 158 3.0 7.0 0.00 0.52 0.52 96 1012.0
20260831150457 70 130 2.0 7.0 0.00 0.52 0.52 96 1012.0
20260831145956 70 162 1.0 5.0 0.00 0.52 0.52 96 1011.7
20260831145457 70 126 2.0 5.0 0.01 0.52 0.52 97 1011.7
20260831144957 69 166 3.0 6.0 0.04 0.52 0.52 96 1011.7
20260831144456 69 173 3.0 6.0 0.14 0.52 0.52 96 1012.0
20260831143954 69 159 3.0 6.0 0.19 0.52 0.52 96 1012.0
20260831143456 69 190 3.0 6.0 0.19 0.52 0.52 96 1012.0
20260831142952 69 178 3.0 8.0 0.19 0.52 0.52 97 1012.0
20260831142452 69 105 3.0 8.0 0.19 0.52 0.52 96 1011.9
20260831141954 69 168 2.0 6.0 0.19 0.52 0.52 96 1011.9
20260831141449 69 200 2.0 6.0 0.19 0.52 0.52 96 1012.0
20260831141311 69 206 2.0 6.0 0.21 0.52 0.52 96 1012.0
20260831140450 69 134 2.0 6.0 0.24 0.52 0.52 96 1012.0
20260831140314 69 150 3.0 7.0 0.24 0.52 0.52 96 1012.2